Location: Asarope
(8.2500°N, 4.4833°E)
Time: 23:31:29
(UTC+00:00)

CZ-3 R/B - Pass Details

Date: 07 June 2020
Orbit: 358 x 10253 km, 28.4° (Epoch: 10 July)

Event Time Altitude Azimuth Distance (km) Brightness Sun altitude
Rises 04:15:57 0° 272° (W) 12,710 6.7 -16.0°
Reaches altitude 10° 04:32:34 10° 282° (WNW) 9,306 6.0 -12.3°
Maximum altitude 04:54:31 29° 335° (NNW) 3,617 4.4 -7.4°
Drops below altitude 10° 05:01:58 10° 34° (NE) 3,194 5.2 -5.7°
Sets 05:04:15 0° 48° (NE) 3,629 6.2 -5.2°
